Вернуться в каталог

CZ-6A DEB

АктивенPO
NORAD 54294·DEBRIS·🇨🇳 China

Запущен Nov 11, 2022 с Taiyuan Satellite Launch Center

Loading…

Ближайшие Пролёты (ближайшие 24 часа)

TLE

СвежийSource: Space-Track

Эпоха: Sep 14, 2026, 06:41 UTC

1 54294U 22151AM  26257.27872570  .00003920  00000-0  55438-3 0  9997
2 54294  98.7596  10.8324 0109690 297.8006  61.2115 14.73717721204153

Отслеживайте CZ-6A DEB в реальном времени с AllMySat

Download on the App Store